STARLINK-35845

Last updated on Sun Dec 07 2025 00:02:05 GMT+0000 (Coordinated Universal Time)

1 66366U 25254U 25340.58335648 -.00112396 00000+0 -20389-2 0 9998 2 66366 53.1600 305.9696 0001046 79.3583 3.5254 15.49352365 5937
UTC large
Height (km)
Speed (km/s)
/
Latitude / Longitude
Inclination (degrees)
Orbital Period (minutes)
Azimuth
Elevation
Range (km)
Doppler Factor

Next 0 passes for location: London (51.5072 / 0.1276)

Sorry there are no passes over London.